Location: *
(52.2019°N, 2.3378°W)
Time: 03:51:58
(UTC+00:00)

Daily predictions for brighter satellites

Satellite Brightness Start Highest point End
(mag) Time Altitude Azimuth Time Altitude Azimuth Time Altitude Azimuth
ERS-2 2.1 00:02:45 39° S 00:03:59 71° WSW 00:07:41 10° NNW
Cosmos 1812 3.8 00:01:56 10° NNW 00:05:27 33° W 00:06:54 25° SW
Cosmos 1315 Rocket 2.7 00:02:04 10° NNW 00:06:01 76° W 00:07:30 37° S
SL-4 R/B 2.2 00:01:31 10° WSW 00:06:20 77° S 00:10:58 10° E
ATLAS 3B R/B 3.7 00:00:02 10° NW 00:06:24 45° NNE 00:12:47 10° E
SWAS 4.4 00:04:27 10° NNW 00:08:44 86° NE 00:10:53 29° SE
Cosmos 1400 Rocket 4.1 00:05:14 10° NNW 00:08:57 32° W 00:10:35 23° SW
Okean 3 4.2 00:07:38 10° N 00:11:46 46° ENE 00:13:59 24° SE
ALOS 2 3.6 00:10:40 25° SW 00:12:30 35° W 00:16:35 10° NNW
Cosmos 2221 Rocket 3.6 00:07:58 10° N 00:12:32 77° E 00:14:40 31° SSE
Helios 1B rocket 3.2 00:09:42 10° N 00:13:42 47° WNW 00:16:03 22° SW
Cosmos 1933 Rocket 4.4 00:11:10 21° SW 00:13:45 42° WNW 00:17:58 10° N
ATLAS CENTAUR R/B 2.8 00:10:58 10° WNW 00:14:52 26° WSW 00:15:54 24° SW
Okean 1-7 3.4 00:12:03 10° NNW 00:16:15 53° W 00:18:01 31° SSW
SL-19 R/B 4.4 00:13:10 10° NNE 00:18:51 61° ESE 00:21:45 27° S
ISS -3.9 00:15:30 10° W 00:18:51 81° S 00:22:11 10° E
SL-16 R/B 2.4 00:16:01 28° S 00:18:53 57° ESE 00:24:26 10° NE
USA 238 DEB 3.9 00:11:58 10° NW 00:19:07 80° NE 00:26:29 10° SE
USA 238 3.9 00:12:04 10° NW 00:19:13 80° NE 00:26:35 10° SE
Lacrosse 4 Rocket 1.9 00:17:40 33° S 00:19:17 49° ESE 00:23:35 10° NE
GP-B 4.5 00:16:15 10° NNW 00:20:09 30° WNW 00:22:41 18° SW
COSMOS 2428 4.1 00:15:09 10° WSW 00:20:24 36° NW 00:25:42 10° NNE
Meteor 2-4 Rocket 4.4 00:17:37 10° N 00:23:18 50° ENE 00:27:29 17° SE
ATLAS 2AS CENTAUR R/B 4.3 00:20:56 17° SSE 00:25:01 26° ESE 00:31:18 10° ENE
Cosmos 1437 2.8 00:26:05 45° SW 00:26:47 62° WNW 00:29:52 10° N
H-2A R/B 4.1 00:23:42 10° ESE 00:27:21 25° ENE 00:31:00 10° N
Cosmos 1980 4.2 00:24:02 14° SW 00:28:51 58° NW 00:34:29 10° NNE
NOSS 2-3 (C) 4.3 00:24:37 11° WSW 00:29:01 65° NW 00:34:46 10° NE
Cosmos 1867 4.1 00:25:39 10° WSW 00:31:04 61° NW 00:36:32 10° NE
Lacrosse 5 2.1 00:28:18 10° WNW 00:33:10 48° SW 00:35:32 27° SSE
Cosmos 2237 Rocket 2.8 00:31:29 14° SW 00:36:14 55° NW 00:41:47 10° NNE
Cosmos 1869 Rocket 3.8 00:35:50 29° SSW 00:37:57 62° WNW 00:42:20 10° N
COSMOS 2455 2.8 00:35:05 22° SW 00:39:12 87° SE 00:45:17 10° NE
Cosmos 2285 Rocket 4.1 00:38:45 22° SSW 00:43:05 77° WNW 00:49:26 10° NNE
Meteor 1-19 Rocket 4.1 00:39:00 10° NNW 00:44:30 83° W 00:47:41 26° S
BREEZE M DEB (TANK) 3.9 00:46:42 27° S 00:48:36 38° SE 00:59:47 10° ENE
Cosmos 1602 3.7 00:48:23 36° S 00:49:56 89° WNW 00:53:53 10° N
Cosmos 1515 4.0 00:47:12 10° N 00:50:59 62° ENE 00:52:48 28° SSE
CZ-4C R/B 3.6 00:49:14 31° S 00:51:16 71° WSW 00:55:44 10° NNW
Cosmos 1809 Rocket 4.4 00:47:01 10° N 00:53:09 89° E 00:57:12 23° S
USA 32 4.3 00:50:39 10° N 00:55:54 63° E 00:59:23 21° SSE
Meteor 1-14 Rocket 4.4 00:52:42 25° SSW 00:56:14 77° WNW 01:02:12 10° N
BREEZE-M DEB (TANK) 4.2 00:54:26 10° W 00:59:30 85° S 01:17:46 10° E
Meteor 1-11 Rocket 4.4 00:59:10 20° SSE 01:02:45 46° E 01:08:12 10° NNE
NOSS 3-2 (C) 4.0 00:57:52 10° NW 01:05:11 85° NE 01:13:26 10° SE
Cosmos 2219 Rocket 4.3 01:00:53 10° W 01:05:22 23° NW 01:09:50 10° NNE
Cosmos 1553 Rocket 4.2 01:02:46 23° SSW 01:06:37 63° WNW 01:12:43 10° N
Cosmos 1975 Rocket 4.4 01:04:21 10° N 01:08:20 34° ENE 01:12:14 10° SE
Okean 1 4.4 01:05:44 10° NNW 01:09:20 31° W 01:10:46 24° SW
S3M 4.1 01:06:45 23° SSW 01:10:52 73° WNW 01:17:18 10° N
Cosmos 1674 Rocket 3.6 01:06:31 10° NNW 01:11:01 76° W 01:13:20 28° S
Cosmos 1943 Rocket 2.1 01:05:45 10° NNW 01:11:16 76° WSW 01:15:22 18° SSE
Cosmos 1486 Rocket 4.1 01:08:33 24° SSW 01:11:48 78° WNW 01:17:07 10° NNE
ATLAS 5 CENTAUR R/B 2.5 01:06:46 10° NW 01:12:18 54° SW 01:17:12 17° SSE
Cosmos 2333 Rocket 4.4 01:08:17 10° W 01:12:41 22° NNW 01:17:05 10° NNE
SeaSat 1 3.8 01:09:00 10° NNE 01:13:29 35° NW 01:17:57 10° WSW
Cosmos 1733 Rocket 3.1 01:15:08 28° SSW 01:17:22 75° W 01:21:48 10° N
SL-16 R/B 2.9 01:13:08 10° SSE 01:19:16 66° ENE 01:25:25 10° NNW
Falcon 9 debris 4.5 01:19:49 24° SE 01:19:53 24° SE 01:22:44 10° E
Gbstr 26 Del rocket 3.1 01:16:35 10° W 01:20:08 39° SSW 01:23:57 10° SE
Cosmos 1709 Rocket 3.9 01:14:31 10° NNW 01:20:46 81° W 01:25:06 21° S
Meteor 2-21 4.5 01:15:30 10° NNW 01:21:30 66° W 01:25:27 22° S
Resurs 1-4 Rocket 3.3 01:17:54 10° NNE 01:22:46 35° E 01:26:44 14° SSE
Cosmos 1503 Rocket 4.0 01:20:01 25° SSW 01:23:09 79° ESE 01:28:31 10° NNE
Unknown 4.3 01:24:52 25° SSE 01:25:06 25° SE 01:28:00 10° E
Cosmos 1536 3.3 01:23:09 24° SSE 01:25:20 52° E 01:29:17 10° NNE
Meteor 2-21 Rocket 4.4 01:19:39 10° NNW 01:25:43 77° W 01:29:59 21° S
Unknown 4.0 01:26:23 26° SE 01:26:23 26° SE 01:28:46 10° E
Lacrosse 5 rocket 3.3 01:23:59 10° W 01:26:14 16° WSW 01:26:14 16° WSW
USA 215 3.4 01:20:16 10° ESE 01:26:48 77° NNE 01:33:21 10° WNW
Cosmos 1378 Rocket 3.5 01:23:07 10° NNW 01:27:26 73° W 01:29:50 26° S
ADEOS II 4.4 01:27:42 10° NE 01:30:43 15° E 01:33:44 10° ESE
Cosmos 1666 4.2 01:30:42 15° SE 01:33:17 30° E 01:36:40 10° NNE
Meteor 1-5 Rocket 4.4 01:30:01 22° S 01:34:04 83° ESE 01:40:05 10° NNE
UNK 3.9 01:30:23 15° SSE 01:34:09 71° ENE 01:38:45 10° N
Cosmos 968 Rocket 3.4 01:31:13 24° SSW 01:34:25 87° ESE 01:39:36 10° NNE
Cosmos 2369 Rocket 2.4 01:30:01 10° NW 01:35:37 56° WSW 01:39:40 18° S
Cosmos 1908 Rocket 3.6 01:39:20 24° S 01:41:58 84° E 01:46:26 10° NNE
CZ-4B R/B 4.1 01:40:31 10° ESE 01:42:31 16° ENE 01:44:30 10° NNE
Cosmos 1354 Rocket 4.0 01:39:11 22° SSW 01:42:38 82° WNW 01:47:59 10° NNE
NOSS 3-2 (A) 4.2 01:37:24 10° NW 01:44:35 54° SW 01:52:34 10° SSE
CZ-2D R/B 2.7 01:40:32 10° NNE 01:45:51 51° E 01:50:09 16° S
SL-4 R/B 2.2 01:41:21 10° W 01:46:06 79° S 01:50:32 10° ESE
SAR-Lupe-4 3.7 01:47:03 26° S 01:48:50 56° WSW 01:52:23 10° NNW
Meteor 1-23 Rocket 4.3 01:43:37 10° NNW 01:49:28 82° W 01:54:26 15° S
Cosmos 1603 3.7 01:45:38 21° SSW 01:49:32 83° ESE 01:55:13 10° NNE
Cosmos 2315 Rocket 4.1 01:46:31 20° SSW 01:51:07 77° WNW 01:57:32 10° N
CZ-4C R/B 3.7 01:50:02 11° SSE 01:53:15 53° ENE 01:56:47 10° N
CENTAUR R/B 3.1 01:45:39 10° NW 01:53:29 82° SW 02:02:06 10° SE
ISS -3.4 01:52:14 10° W 01:55:22 39° SSW 01:58:29 10° SE
SL-08 R/B 3.9 01:52:45 10° SSE 01:57:20 58° ENE 02:02:03 10° N
ATLAS 3B R/B 2.6 01:50:52 10° NW 01:57:29 70° SW 02:04:11 10° SSE
Lacrosse 4 Rocket 3.0 01:54:07 10° WSW 01:58:11 32° NW 02:02:12 10° NNE
Cosmos 2098 Rocket 3.5 01:55:47 10° NNW 01:58:29 25° W 01:59:22 21° WSW
MOZ.5/SAFIR/RUBIN 5/SL-8 3.8 01:55:07 16° S 01:58:49 74° WSW 02:03:35 10° NNW
CZ-4B R/B 4.0 01:55:36 10° N 02:00:28 49° WNW 02:03:58 18° SW
Cosmos 220 Rocket 4.4 01:57:45 10° NW 02:02:02 46° WSW 02:04:54 19° S
H-2A R/B 2.4 02:00:01 19° S 02:03:03 53° W 02:07:30 10° NNW
SL-16 R/B 3.4 01:58:07 10° WSW 02:03:19 35° NW 02:08:31 10° NNE
NOSS 2-2 (E) 3.3 02:01:59 22° SW 02:04:24 79° SE 02:08:58 10° NE
Unknown 4.4 02:03:14 22° SSW 02:04:59 33° SSE 02:08:31 10° E
Cosmos 1500 3.6 02:03:53 22° SW 02:06:06 50° WNW 02:09:51 10° N
Cosmos 1975 4.3 02:04:54 10° SSE 02:08:33 32° E 02:12:13 10° NNE
Unknown 3.5 02:11:48 22° SW 02:13:42 48° SSE 02:17:03 10° E
ATLAS 2AS CENTAUR R/B 3.1 02:08:21 16° SW 02:15:06 81° SE 02:23:10 10° NE
Lacrosse 5 3.8 02:13:34 10° WSW 02:14:40 11° WSW 02:14:40 11° WSW
Cosmos 1782 Rocket 3.6 02:12:31 18° SSW 02:15:46 79° WNW 02:20:16 10° N
Unknown 4.1 02:15:11 20° SSW 02:17:19 39° SSE 02:20:55 10° E
NOSS 2-2 (D) 3.3 02:17:47 19° SW 02:20:29 87° SE 02:25:00 10° NE
Cosmos 1943 3.2 02:16:47 17° SSW 02:21:15 83° WNW 02:26:58 10° NNE
Unknown 4.3 02:18:57 19° SSW 02:21:22 37° SSE 02:25:09 10° E
Unknown 4.4 02:20:02 18° SSW 02:22:32 36° SSE 02:26:21 10° E
Unknown 4.4 02:21:36 18° SSW 02:24:10 37° SSE 02:28:00 10° E
Cosmos 2184 Rocket 4.1 02:17:53 10° NNW 02:24:12 70° W 02:30:23 10° S
FALCON 9 DEB 3.3 02:22:49 19° SW 02:25:06 55° SSE 02:28:30 10° ENE
Unknown 4.4 02:23:12 18° SSW 02:25:48 38° SSE 02:29:40 10° E
Unknown 4.4 02:23:12 18° SSW 02:25:49 38° SSE 02:29:42 10° E
COSMOS 2455 4.4 02:20:30 10° W 02:25:51 32° NNW 02:31:14 10° NNE
NOSS 8 (E) 4.3 02:24:46 18° SW 02:26:56 75° NW 02:30:13 10° NE
Unknown 4.3 02:24:50 18° SSW 02:27:29 38° SSE 02:31:22 10° E
NOSS 8 (H) 4.2 02:26:49 20° SW 02:28:51 74° SE 02:32:09 10° NE
Unknown 4.3 02:26:25 17° SSW 02:29:09 39° SSE 02:33:02 10° E
IRS-1C 4.4 02:26:29 10° NNE 02:31:49 65° ESE 02:37:07 10° S
Cosmos 1066 Rocket 4.5 02:26:42 10° NNW 02:32:24 55° W 02:37:46 11° S
Unknown 4.2 02:29:35 17° SSW 02:32:25 41° SSE 02:36:20 10° E
Sich 1 Rocket 3.8 02:30:13 16° SSW 02:33:50 63° WNW 02:38:25 10° N
Starlink (trailer) 4.2 02:31:12 16° SW 02:34:06 42° SSE 02:38:01 10° E
NPP 3.7 02:28:54 10° NNE 02:34:17 72° WNW 02:39:01 14° SSW
Unknown 4.2 02:32:48 16° SW 02:35:45 43° SSE 02:39:42 10° ENE
Cosmos 1656 Rocket 4.0 02:31:32 10° NW 02:36:57 46° WSW 02:42:20 10° S
Unknown 4.2 02:34:23 16° SW 02:37:23 43° SSE 02:41:20 10° ENE
Cosmos 2084 4.3 02:34:38 10° NW 02:38:51 53° NE 02:42:55 10° ESE
Unknown 4.1 02:40:45 15° SW 02:44:01 47° SSE 02:48:00 10° ENE
Cosmos 1025 Rocket 3.3 02:39:52 10° N 02:44:17 74° E 02:48:40 10° SSE
Unknown 4.0 02:42:22 14° SW 02:45:41 48° SSE 02:49:42 10° ENE
Cosmos 1743 2.7 02:42:23 13° SSW 02:45:52 84° W 02:49:46 10° N
Cosmos 1975 Rocket 4.0 02:42:21 10° NNW 02:46:09 30° W 02:49:21 13° SSW
Meteor 1-21 4.5 02:41:16 10° NNW 02:47:08 79° ENE 02:52:56 10° SSE
Unknown 4.0 02:43:57 14° SW 02:47:20 49° SSE 02:51:21 10° ENE
Unknown 4.0 02:45:32 14° SW 02:48:58 50° SSE 02:52:59 10° ENE
Unknown 3.5 02:46:39 13° WSW 02:49:58 61° SSE 02:53:41 10° ENE
ARIANE 5 R/B 2.8 02:45:36 10° NNE 02:50:42 67° ESE 02:55:50 10° S
Unknown 3.9 02:47:14 13° SW 02:50:46 52° SSE 02:54:48 10° ENE
Unknown 4.0 02:47:36 13° SW 02:51:02 50° SSE 02:55:01 10° ENE
CBERS-1 4.2 02:46:23 10° N 02:51:30 66° WNW 02:56:24 11° SSW
Unknown 3.9 02:49:00 13° SW 02:52:34 52° SSE 02:56:36 10° ENE
Cosmos 1378 3.2 02:48:59 10° N 02:52:44 84° E 02:56:26 10° SSE
Cosmos 1842 3.3 02:49:52 10° N 02:53:46 85° ENE 02:57:38 10° S
Unknown 3.9 02:50:23 12° SW 02:54:02 54° SSE 02:58:06 10° ENE
Cosmos 1943 Rocket 3.9 02:51:15 10° WNW 02:54:04 14° W 02:56:50 10° SW
NOSS 2-2 (C) 3.9 02:51:02 10° WSW 02:54:47 55° NW 02:59:22 10° NE
Unknown 3.9 02:51:56 12° SW 02:55:37 54° SSE 02:59:41 10° ENE
ATLAS 5 CENTAUR R/B 4.1 02:53:37 10° W 02:56:08 13° WSW 02:58:38 10° SW
Landsat 5 4.0 02:52:13 10° S 02:56:31 46° W 03:00:43 10° NNW
Falcon 9 debris 3.1 02:53:09 10° WSW 02:56:36 78° SSE 03:00:03 10° ENE
Cosmos 923 Rocket 4.1 02:51:26 10° NNW 02:56:43 62° WSW 03:01:58 10° S
Unknown 3.9 02:53:32 12° SW 02:57:17 55° SSE 03:01:21 10° ENE
Meteor 2-15 4.5 02:51:18 10° SSW 02:57:22 78° WNW 03:03:28 10° N
deb Chang Zheng 4 3.8 02:55:23 10° N 02:59:36 56° WNW 03:03:40 11° SSW
Unknown 2.7 02:58:43 10° WSW 03:01:42 87° S 03:04:42 10° ENE
Unknown 3.1 02:58:22 10° WSW 03:01:48 81° SSE 03:05:15 10° ENE
Cosmos 405 3.8 02:58:20 10° N 03:01:48 53° ENE 03:05:16 10° SSE
Unknown 3.8 02:58:21 11° SW 03:02:16 57° SSE 03:06:22 10° ENE
EXPRESS MD2 2.6 03:00:01 10° WSW 03:02:22 56° S 03:06:04 10° E
Resurs 1-4 Rocket 2.8 02:57:41 10° N 03:02:43 44° WNW 03:07:42 10° SW
SL-16 R/B 3.5 02:58:13 10° SSW 03:03:22 28° W 03:08:36 10° NW
Meteor 1-28 Rocket 4.5 03:00:08 10° SE 03:03:44 44° ENE 03:07:22 10° N
Unknown 3.8 02:59:55 11° SW 03:03:55 58° SSE 03:08:00 10° ENE
Unknown 3.8 03:01:32 10° SW 03:05:35 60° SSE 03:09:40 10° ENE
Unknown 3.8 03:03:08 10° SW 03:07:14 61° SSE 03:11:20 10° ENE
IRS-P3 4.4 03:02:09 10° N 03:07:26 61° WNW 03:12:41 10° SSW
Cosmos 1666 4.0 03:05:36 10° SW 03:08:52 28° WNW 03:12:15 10° N
USA 215 3.4 03:03:44 10° SE 03:10:04 52° SW 03:16:27 10° WNW
Cosmos 1346 Rocket 3.3 03:06:12 10° SSW 03:10:06 48° WNW 03:14:00 10° N
Unknown 3.8 03:06:27 10° WSW 03:10:33 63° SSE 03:14:40 10° ENE
ADEOS II 2.2 03:05:56 10° NNE 03:11:14 85° ESE 03:16:31 10° SSW
Spot 4 Rocket 4.1 03:06:24 10° NNE 03:11:37 84° ESE 03:16:46 10° SSW
Unknown 3.8 03:08:05 10° WSW 03:12:13 64° SSE 03:16:21 10° ENE
CZ-2C R/B 3.3 03:10:01 10° NNE 03:13:40 54° E 03:17:20 10° S
Unknown 3.7 03:09:45 10° WSW 03:13:52 65° SSE 03:18:00 10° ENE
CZ-4B R/B 1.8 03:11:42 10° S 03:14:41 39° W 03:17:38 10° NNW
Cosmos 158 Rocket 4.3 03:09:58 10° NNW 03:14:58 72° ENE 03:20:03 10° SSE
Unknown 3.7 03:11:22 10° WSW 03:15:30 65° SSE 03:19:36 10° ENE
Unknown 3.7 03:13:04 10° WSW 03:17:11 67° SSE 03:21:19 10° ENE
SJ 16-02 3.1 03:13:32 10° SSE 03:17:18 29° ESE 03:21:05 10° NE
Unknown 3.7 03:14:34 10° WSW 03:18:41 65° SSE 03:22:49 10° ENE
NOSS 3-4 (A) 3.6 03:13:23 10° SW 03:19:31 78° NW 03:26:08 10° NE
NOSS 3-4 (C) 3.6 03:13:29 10° SW 03:19:37 78° NW 03:26:13 10° NE
Okean 2 Rocket 3.8 03:16:07 10° SW 03:20:18 39° WNW 03:24:30 10° N
Genesis I 3.9 03:17:09 10° SSW 03:21:06 50° SE 03:25:04 10° NE
Unknown 3.7 03:17:52 10° WSW 03:22:00 67° SSE 03:26:09 10° ENE
Cosmos 1680 Rocket 3.8 03:17:24 10° NNW 03:22:34 50° WSW 03:27:38 10° S
Unknown 3.7 03:19:32 10° WSW 03:23:39 68° SSE 03:27:48 10° ENE
Nadezhda 1 Rocket 4.4 03:17:33 10° SSW 03:23:47 52° WNW 03:30:02 10° N
Unknown 3.7 03:21:15 10° WSW 03:25:23 72° SSE 03:29:33 10° ENE
Unknown 3.7 03:21:24 10° WSW 03:25:32 72° SSE 03:29:41 10° ENE
SL-4 R/B 2.7 03:21:17 10° W 03:25:32 37° SSW 03:29:30 10° SE
CZ-2D R/B 3.3 03:20:58 10° N 03:25:43 32° WNW 03:30:30 10° WSW
Unknown 3.7 03:22:49 10° WSW 03:26:58 70° SSE 03:31:06 10° ENE
Unknown 3.7 03:24:31 10° WSW 03:28:39 72° SSE 03:32:48 10° ENE
Cosmos 1892 Rocket 4.5 03:26:08 10° N 03:30:25 53° ENE 03:34:41 10° SSE
Cosmos 2341 Rocket 4.2 03:25:26 10° NNW 03:31:40 59° W 03:37:55 10° S
